#timestamp,LO_Frequency,Hit 
1505476815.5,286047003.2,N
1505476835.3,286047011.9,P
1505476855.2,286047014.2,N
1505476875.0,286047019.8,P
1505476875.9,286047019.8,N
1505476895.8,286047024.9,P
1505476915.6,286047014.9,N
1505476935.4,286047015.9,P
1505476955.3,286047020.3,P
1505476975.1,286047004.3,N
1505476995.8,286047003.4,N
1505477015.7,286047005.8,N
1505477035.5,286047003.0,N
1505477055.4,286047004.2,N
1505477075.2,286047003.4,N
1505477095.0,286047004.3,N
1505477095.9,286047004.3,N
1505477115.8,286047003.5,N
1505477135.6,286046999.9,N
1505477155.5,286046999.5,N
1505477175.3,286046995.0,N
1505477195.1,286046993.6,N
1505477215.9,286046992.4,N
1505477235.7,286046990.2,N
1505477255.5,286046988.1,N
1505477275.4,286046988.3,N
1505477295.2,286046986.1,N
1505477315.1,286046983.8,N
1505477316.0,286046983.8,N
1505477335.8,286046982.5,N
1505477355.6,286046988.4,N
1505477375.5,286046992.7,N
1505477395.3,286046991.7,N
1505477415.2,286046989.0,N
1505477435.9,286046985.9,N
1505477455.7,286046983.4,N
1505477475.6,286046980.8,N
1505477495.4,286046978.7,N
1505477515.2,286046975.5,N
1505477535.1,286046969.3,P
1505477536.0,286046969.3,N
1505477555.8,286046974.1,N
1505477575.7,286046973.4,N
1505477595.5,286046970.0,P
1505477615.4,286046988.7,P
1505477635.2,286046986.7,N
1505477655.0,286046982.4,N
1505477655.9,286046982.4,N
1505477675.8,286046977.3,P
1505477695.6,286046995.5,N
1505477715.5,286046994.1,N
1505477735.3,286046990.9,N
1505477755.1,286046989.3,N
1505477775.9,286046988.3,N
1505477795.7,286046986.3,N
1505477815.6,286046986.8,P
1505477835.4,286046999.0,N
1505477855.2,286047000.0,N
1505477875.1,286047002.8,N
1505477876.0,286047002.8,N
1505477895.8,286047002.2,N
1505477915.6,286047002.4,N
1505477935.5,286047003.8,N
1505477955.3,286047002.9,N
1505477975.2,286047009.1,N
1505477995.9,286047006.1,N
1505478015.7,286047010.3,N
1505478035.6,286047013.5,N
1505478055.4,286047017.7,N
1505478075.3,286047023.9,P
1505478095.1,286047025.9,N
1505478096.0,286047025.9,N
1505478115.8,286047032.4,P
1505478135.7,286047021.2,P
1505478155.5,286047019.9,P
1505478175.4,286047018.4,P
1505478195.2,286046994.1,N
1505478215.0,286046994.8,N
1505478215.9,286046994.8,N
1505478235.8,286046989.7,N
1505478255.6,286046984.3,N
1505478275.5,286046985.8,N
1505478295.3,286046984.4,N
1505478315.1,286046983.2,N
1505478335.9,286046982.3,N
1505478355.7,286046979.7,N
1505478375.5,286046981.6,N
1505478395.4,286046984.6,N
1505478415.2,286046982.0,N
1505478435.1,286046978.3,N
1505478436.0,286046978.3,N
1505478455.8,286046973.0,N
1505478475.6,286046969.4,N
1505478495.5,286046968.9,N
1505478515.3,286046964.8,N
1505478535.1,286046963.9,N
1505478555.9,286046961.2,N
1505478575.7,286046957.1,N
1505478595.6,286046961.2,N
1505478615.4,286046960.7,N
1505478635.2,286046958.3,N
1505478655.1,286046962.8,N
1505478656.0,286046962.8,N
1505478675.8,286046959.7,N
1505478695.7,286046964.1,N
1505478715.5,286046965.0,N
1505478735.3,286046961.5,P
1505478755.2,286046993.7,N
1505478775.0,286046990.1,N
1505478775.9,286046990.1,N
1505478795.8,286046990.4,N
1505478815.6,286046986.9,N
1505478835.4,286046982.1,N
1505478855.3,286046984.0,N
1505478875.1,286046985.2,N
1505478895.8,286046985.3,N
1505478915.7,286046985.6,N
1505478935.5,286046985.1,N
1505478955.4,286046983.1,N
1505478975.2,286046979.9,N
1505478995.0,286046974.7,P
1505478995.9,286046974.7,P
1505479015.8,286046991.5,N
1505479035.6,286046990.0,N
1505479055.5,286046989.0,N
1505479075.3,286046987.7,N
1505479095.1,286046993.2,N
1505479115.9,286046989.1,N
1505479135.7,286046987.3,N
1505479155.5,286046987.2,N
1505479175.4,286046988.0,N
1505479195.2,286046991.6,N
1505479215.1,286046990.4,N
1505479216.0,286046990.4,N
1505479235.8,286046989.7,N
1505479255.6,286046986.8,N
1505479275.5,286046986.8,N
1505479295.3,286046985.1,P
1505479315.2,286046993.8,P
1505479335.9,286046990.9,N
1505479355.7,286046987.0,P
1505479375.6,286046997.9,N
1505479395.4,286046996.2,N
1505479415.3,286046994.3,N
1505479435.1,286046999.4,N
1505479436.0,286046999.4,N
1505479455.8,286046998.5,N
1505479475.7,286046998.3,N
1505479495.5,286046999.4,N
1505479515.3,286047002.0,N
1505479535.2,286047005.6,N
1505479555.0,286047012.2,N
1505479555.9,286047012.2,N
1505479575.8,286047011.4,N
1505479595.6,286047009.6,N
1505479615.4,286047008.0,N
1505479635.3,286047010.3,N
1505479655.1,286047008.6,N
1505479675.9,286047014.2,N
1505479695.7,286047013.5,N
1505479715.5,286047009.6,N
1505479735.4,286047014.6,N
1505479755.2,286047016.5,N
1505479775.0,286047016.2,N
1505479775.9,286047016.2,N
1505479795.8,286047014.6,N
1505479815.6,286047016.3,N
1505479835.5,286047014.3,N
1505479855.3,286047010.4,N
1505479875.1,286047006.7,N
1505479895.9,286047001.7,N
1505479915.7,286046998.2,N
1505479935.6,286046997.5,N
1505479955.4,286046992.2,N
1505479975.2,286046991.5,N
1505479995.1,286046989.6,N
1505479996.0,286046989.6,N
1505480015.8,286046985.7,N
1505480035.6,286046982.1,N
1505480055.5,286046983.1,N
1505480075.3,286046982.4,N
1505480095.2,286046982.9,N
1505480115.9,286046979.8,N
1505480135.7,286046979.3,N
1505480155.6,286046983.4,N
1505480175.4,286046984.9,N
1505480195.2,286046980.5,N
1505480215.1,286046986.0,N
1505480216.0,286046986.0,N
1505480235.8,286046991.2,N
1505480255.7,286046998.9,N
1505480275.5,286047009.2,N
1505480295.3,286047003.5,N
1505480315.2,286047006.0,N
1505480335.0,286047004.9,N
1505480335.9,286047004.9,N
1505480355.8,286047004.9,N
1505480375.6,286047004.9,N
1505480395.4,286047002.8,N
